logo tempoitalia

Diretta Meteo Council Bluffs, Stati Uniti (USA)lunedì 31 agosto ore 01:35

Mappa
Sereno 26 °C Sereno 24 Ore: T.min 24 T.max 33
Ponente Ovest/Sud-Ovest Km/h 9.3 Punto di rugiada: 22 °C Umidità: 78% Visibilità: 10 Km
Il sole sorge alle: 06:48 Il sole tramonta alle: 19:57
31 Agosto 2026 01:35 tempo osservato: Sereno Sereno 26 78 1009 vento: Nord O/SO 9.3
31 Agosto 2026 01:15 tempo osservato: Sereno Sereno 26 78 1009 vento: Nord S 7.4
31 Agosto 2026 00:55 tempo osservato: Sereno Sereno 26 78 1009 vento: Nord S 14.8
31 Agosto 2026 00:35 tempo osservato: Sereno Sereno 26 83 1008 vento: Nord S/SE 14.8
31 Agosto 2026 00:15 tempo osservato: Sereno Sereno 26 83 1008 vento: Nord SE 14.8
30 Agosto 2026 23:55 tempo osservato: Sereno Sereno 27 83 1009 vento: Nord SE 13
30 Agosto 2026 23:35 tempo osservato: Sereno Sereno 27 83 1009 vento: Nord SE 11.1
30 Agosto 2026 23:15 tempo osservato: Sereno Sereno 27 83 1009 vento: Nord SE 13
30 Agosto 2026 22:55 tempo osservato: Sereno Sereno 27 83 1009 vento: Nord SE 11.1
30 Agosto 2026 22:35 tempo osservato: Sereno Sereno 28 78 1009 vento: Nord SE 13
30 Agosto 2026 22:15 tempo osservato: Sereno Sereno 28 74 1009 vento: Nord SE 11.1
30 Agosto 2026 21:55 tempo osservato: Sereno Sereno 28 74 1009 vento: Nord SE 9.3
30 Agosto 2026 21:35 tempo osservato: Sereno Sereno 28 74 1009 vento: Nord SE 7.4
30 Agosto 2026 21:15 tempo osservato: Sereno Sereno 28 78 1009 vento: Nord SE 9.3
30 Agosto 2026 20:55 tempo osservato: Sereno Sereno 28 78 1009 vento: Nord SE 11.1
30 Agosto 2026 20:35 tempo osservato: Sereno Sereno 29 74 1008 vento: Nord SE 9.3
30 Agosto 2026 20:15 tempo osservato: Sereno Sereno 29 79 1008 vento: Nord SE 9.3
30 Agosto 2026 19:55 tempo osservato: Sereno Sereno 30 70 1008 vento: Nord SE 7.4
30 Agosto 2026 19:35 tempo osservato: Sereno Sereno 30 70 1008 vento: Nord S/SE 9.3
30 Agosto 2026 19:15 tempo osservato: Foschia Foschia 31 66 1008 vento: Nord S 9.3
30 Agosto 2026 18:55 tempo osservato: Sereno Sereno 31 62 1008 vento: Nord S 11.1
30 Agosto 2026 18:35 tempo osservato: Sereno Sereno 32 59 1008 vento: Nord S/SO 11.1
30 Agosto 2026 18:15 tempo osservato: Sereno Sereno 32 55 1008 vento: Nord S/SO 11.1
30 Agosto 2026 17:55 tempo osservato: Sereno Sereno 32 55 1008 vento: Nord S/SO 13
30 Agosto 2026 17:35 tempo osservato: Sereno Sereno 33 49 1008 vento: Nord S/SO 18.5
30 Agosto 2026 17:15 tempo osservato: Sereno Sereno 33 49 1008 vento: Nord S/SO 14.8
30 Agosto 2026 16:55 tempo osservato: Sereno Sereno 32 52 1008 vento: Nord S/SO 13
30 Agosto 2026 16:35 tempo osservato: Sereno Sereno 33 49 1008 vento: Nord SO 14.8
30 Agosto 2026 16:15 tempo osservato: Sereno Sereno 32 52 1008 vento: Nord S/SO 14.8
30 Agosto 2026 15:55 tempo osservato: Sereno Sereno 31 55 1008 vento: Nord SO 11.1
30 Agosto 2026 15:35 tempo osservato: Sereno Sereno 31 55 1008 vento: Nord SO 16.7
30 Agosto 2026 15:15 tempo osservato: Sereno Sereno 32 52 1008 vento: Nord S/SO 18.5
30 Agosto 2026 14:55 tempo osservato: Sereno Sereno 31 55 1009 vento: Nord SO 18.5
30 Agosto 2026 14:35 tempo osservato: Sereno Sereno 31 52 1009 vento: Nord S/SO 18.5
30 Agosto 2026 14:15 tempo osservato: Sereno Sereno 31 52 1009 vento: Nord SO 24
30 Agosto 2026 13:55 tempo osservato: Sereno Sereno 31 48 1009 vento: Nord S/SO 24
30 Agosto 2026 13:35 tempo osservato: Sereno Sereno 31 48 1009 vento: Nord SO 20.3
30 Agosto 2026 13:15 tempo osservato: Sereno Sereno 32 52 1009 vento: Nord S/SO 24
30 Agosto 2026 12:55 tempo osservato: Sereno Sereno 31 52 1009 vento: Nord S/SO 22.2
30 Agosto 2026 12:35 tempo osservato: Sereno Sereno 30 51 1009 vento: Nord S 16.7
30 Agosto 2026 12:15 tempo osservato: Sereno Sereno 30 55 1009 vento: Nord S 20.3
30 Agosto 2026 11:55 tempo osservato: Sereno Sereno 30 55 1009 vento: Nord S 18.5
30 Agosto 2026 11:35 tempo osservato: Sereno Sereno 29 54 1009 vento: Nord S 16.7
30 Agosto 2026 11:15 tempo osservato: Sereno Sereno 28 58 1009 vento: Nord S 18.5
30 Agosto 2026 10:55 tempo osservato: Sereno Sereno 28 61 1009 vento: Nord S/SE 24
30 Agosto 2026 10:35 tempo osservato: Sereno Sereno 27 65 1010 vento: Nord S/SE 18.5
30 Agosto 2026 10:15 tempo osservato: Sereno Sereno 26 69 1009 vento: Nord SE 16.7
30 Agosto 2026 09:55 tempo osservato: Sereno Sereno 25 73 1010 vento: Nord SE 13
30 Agosto 2026 09:35 tempo osservato: Sereno Sereno 24 78 1009 vento: Nord SE 14.8
30 Agosto 2026 09:15 tempo osservato: Sereno Sereno 24 73 1009 vento: Nord SE 13
30 Agosto 2026 08:55 tempo osservato: Sereno Sereno 24 73 1009 vento: Nord SE 16.7
30 Agosto 2026 08:35 tempo osservato: Sereno Sereno 24 73 1009 vento: Nord S/SE 13
30 Agosto 2026 08:15 tempo osservato: Sereno Sereno 24 73 1009 vento: Nord S 13
30 Agosto 2026 07:55 tempo osservato: Sereno Sereno 24 73 1009 vento: Nord S 13
30 Agosto 2026 07:35 tempo osservato: Sereno Sereno 24 73 1009 vento: Nord S/SE 14.8
30 Agosto 2026 07:15 tempo osservato: Sereno Sereno 24 73 1010 vento: Nord S/SE 14.8
30 Agosto 2026 06:55 tempo osservato: Poco Nuvoloso Poco Nuvoloso 24 73 1009 vento: Nord S/SE 14.8
30 Agosto 2026 06:35 tempo osservato: Sereno Sereno 25 65 1009 vento: Nord S 13
30 Agosto 2026 06:15 tempo osservato: Poco Nuvoloso Poco Nuvoloso 24 73 1010 vento: Nord S 14.8
30 Agosto 2026 05:55 tempo osservato: Nuvoloso Nuvoloso 25 69 1009 vento: Nord S 18.5
30 Agosto 2026 05:35 tempo osservato: Sereno Sereno 25 65 1010 vento: Nord S 14.8
30 Agosto 2026 05:15 tempo osservato: Molto Nuvoloso Molto Nuvoloso 25 69 1010 vento: Nord SO 11.1
30 Agosto 2026 04:55 tempo osservato: Molto Nuvoloso Molto Nuvoloso 26 61 1010 vento: Nord SO 18.5
30 Agosto 2026 04:35 tempo osservato: Poco Nuvoloso Poco Nuvoloso 26 61 1009 vento: Nord S/SO 18.5
30 Agosto 2026 04:15 tempo osservato: Sereno Sereno 26 61 1009 vento: Nord S/SO 18.5
30 Agosto 2026 03:55 tempo osservato: Sereno Sereno 26 61 1009 vento: Nord S/SO 20.3
30 Agosto 2026 03:35 tempo osservato: Sereno Sereno 27 57 1009 vento: Nord S/SO 24
30 Agosto 2026 03:15 tempo osservato: Sereno Sereno 26 61 1009 vento: Nord S/SO 20.3
30 Agosto 2026 02:55 tempo osservato: Sereno Sereno 26 61 1009 vento: Nord S/SO 22.2
30 Agosto 2026 02:35 tempo osservato: Sereno Sereno 27 57 1009 vento: Nord S/SO 20.3
30 Agosto 2026 02:15 tempo osservato: Sereno Sereno 27 57 1009 vento: Nord S 24
30 Agosto 2026 01:55 tempo osservato: Sereno Sereno 27 57 1009 vento: Nord S/SO 25.9
30 Agosto 2026 01:35 tempo osservato: Sereno Sereno 27 57 1009 vento: Nord S/SO 25.9